#timestamp,LO_Frequency,Hit,StdDev 
1618894815.3,286047000.2,N
1618894835.1,286046999.0,N
1618894855.9,286046998.6,N
1618894875.7,286046998.9,N
1618894895.6,286046998.9,N
1618894915.4,286046997.3,N
1618894935.2,286046996.9,N
1618894955.1,286046999.1,N
1618894956.0,286046999.1,N
1618894975.8,286046996.5,N
1618894995.7,286046997.3,N
1618895015.5,286046997.1,N
1618895035.3,286047000.4,N
1618895055.2,286046998.9,N
1618895075.0,286046996.6,N
1618895075.9,286046996.6,N
1618895095.7,286046998.8,N
1618895115.6,286046999.0,N
1618895135.4,286046998.9,N
1618895155.3,286046997.0,N
1618895175.1,286046996.8,N
1618895225.9,286046995.1,E
1618895235.8,286046998.9,N
1618895255.6,286047003.2,P
1618895275.5,286047001.6,N
1618895295.3,286047000.3,N
1618895315.2,286047000.3,N
1618895335.9,286047001.2,N
1618895355.7,286047000.7,N
1618895375.6,286047000.2,N
1618895395.4,286047000.7,N
1618895415.2,286046998.4,N
1618895435.1,286046999.0,N
1618895436.0,286046999.0,N
1618895455.8,286046999.0,N
1618895475.7,286046998.6,N
1618895525.5,286046998.5,E
1618895535.4,286046998.8,N
1618895555.3,286047002.5,P
1618895575.1,286047002.6,N
1618895595.9,286046999.7,N
1618895615.7,286047000.6,N
1618895635.5,286047002.7,N
1618895655.4,286047002.1,N
1618895675.2,286047000.0,N
1618895695.0,286046999.9,N
1618895695.9,286046999.9,N
1618895715.8,286047000.5,N
1618895735.6,286046998.3,N
1618895755.5,286047000.6,N
1618895775.3,286047002.2,N
1618895795.1,286047000.4,N
1618895815.9,286047001.2,N
1618895835.7,286047001.0,N
1618895855.5,286047000.9,N
1618895875.4,286047000.8,N
1618895895.2,286047001.2,N
1618895915.1,286046998.4,N
1618895916.0,286046998.4,N
1618895935.8,286046998.3,N
1618895955.6,286046999.1,N
1618895975.5,286047001.1,N
1618895995.3,286046998.2,N
1618896015.1,286046999.2,N
1618896035.9,286046997.8,N
1618896055.7,286046997.8,N
1618896075.6,286046997.8,N
1618896095.4,286046997.4,N
1618896115.2,286046997.8,N
1618896135.1,286046997.8,N
1618896136.0,286046997.8,N
1618896155.8,286046995.6,N
1618896175.6,286046995.0,N
1618896195.5,286046994.9,N
1618896215.3,286046994.9,N
1618896235.2,286046996.1,N
1618896255.9,286046997.3,N
1618896275.7,286046997.1,N
1618896295.6,286046998.6,N
1618896315.4,286046998.8,N
1618896335.2,286046997.2,N
1618896355.1,286046997.4,N
1618896356.0,286046997.4,N
1618896375.8,286046997.9,N
1618896395.7,286046996.9,N
1618896415.5,286046997.1,N
1618896435.3,286046998.7,N
1618896455.2,286047000.7,N
1618896475.0,286047000.4,N
1618896475.9,286047000.4,N
1618896495.8,286046998.2,N
1618896515.6,286047000.9,N
1618896535.4,286047002.0,N
1618896555.3,286047004.0,N
1618896575.1,286047000.7,N
1618896595.9,286046999.8,N
1618896615.7,286047002.5,N
1618896635.5,286047002.0,N
1618896655.4,286047001.5,N
1618896675.2,286047002.2,N
1618896695.0,286047000.6,N
1618896696.0,286047000.6,N
1618896715.8,286046999.4,N
1618896735.6,286046998.6,N
1618896755.5,286046999.5,N
1618896775.3,286046998.8,N
1618896795.1,286047002.4,N
1618896815.9,286047003.7,N
1618896835.7,286047003.5,N
1618896855.6,286047004.4,N
1618896875.4,286047002.5,N
1618896895.2,286047001.9,N
1618896915.1,286047001.9,N
1618896916.0,286047001.9,N
1618896935.8,286047001.6,N
1618896955.7,286047000.2,N
1618896975.5,286046999.8,N
1618896995.3,286047003.7,N
1618897015.2,286047003.7,N
1618897035.0,286047004.3,N
1618897035.9,286047004.3,N
1618897055.8,286047005.9,Y
1618897075.6,286047003.0,P
1618897095.4,286047003.9,P
1618897115.3,286047004.1,P
1618897135.1,286047006.0,Y
1618897155.9,286047002.6,P
1618897175.7,286046999.1,P
1618897195.5,286046999.6,N
1618897215.4,286046997.6,N
1618897235.2,286047011.9,Y
1618897255.1,286047000.7,P
1618897256.0,286047000.7,P
1618897275.8,286047000.9,P
1618897295.6,286046999.6,N
1618897315.5,286046997.8,Y
1618897335.3,286046995.7,P
1618897355.2,286046995.3,N
1618897375.0,286046996.3,N
1618897375.9,286046996.3,N
1618897395.8,286046993.8,Y
1618897415.6,286046997.3,P
1618897435.4,286046996.4,P
1618897455.3,286046995.7,P
1618897475.1,286046996.0,Y
1618897495.9,286047000.5,P
1618897515.7,286047000.6,N
1618897535.5,286047000.5,N
1618897555.4,286047000.0,N
1618897575.2,286047002.5,N
1618897595.0,286047003.2,N
1618897595.9,286047003.2,N
1618897615.8,286047003.2,N
1618897635.6,286047007.2,Y
1618897655.5,286047005.1,P
1618897675.3,286047005.6,N
1618897695.1,286047005.8,N
1618897715.9,286047008.9,Y
1618897735.7,286047002.5,P
1618897755.5,286047004.3,P
1618897775.4,286047006.7,P
1618897795.2,286047004.6,Y
1618897815.1,286046998.7,P
1618897816.0,286046998.7,N
1618897835.8,286046998.8,N
1618897855.6,286046998.9,N
1618897875.5,286047001.7,N
1618897895.3,286046999.7,N
1618897915.1,286047000.1,N
1618897935.9,286046999.2,N
1618897955.7,286046997.3,N
1618897975.6,286046996.0,N
1618897995.4,286046993.6,Y
1618898015.2,286046997.3,P
1618898035.1,286046999.3,N
1618898036.0,286046999.3,N
1618898055.8,286046997.7,N
1618898075.7,286046997.0,Y
1618898095.5,286047000.8,P
1618898115.3,286046997.1,N
1618898135.2,286046997.3,N
1618898155.9,286046997.1,N
1618898175.7,286046997.2,N
1618898195.6,286046998.3,N
1618898215.4,286046999.1,N
1618898235.3,286046997.8,N
1618898255.1,286046999.5,N
1618898256.0,286046999.5,N
1618898275.8,286046997.0,N
1618898295.7,286046997.6,N
1618898315.5,286046998.9,N
1618898335.3,286046998.1,N
1618898355.2,286046998.7,N
1618898375.0,286047002.6,N
1618898375.9,286047002.6,N
1618898395.8,286047002.6,N
